Location: Clarion
(42.7316°N, 93.7330°W)
Time: 09:54:07
(UTC+00:00)

Cosmos 1500 Rocket - Pass Details

Date: 22 April 2026
Orbit: 597 x 622 km, 82.5° (Epoch: 17 May)

Event Time Altitude Azimuth Distance (km) Brightness Sun altitude
Rises 10:13:37 0° 354° (N) 2,896 7.3 -12.4°
Reaches altitude 10° 10:15:52 10° 357° (N) 1,989 6.5 -12.0°
Maximum altitude 10:20:15 69° 80° (E) 668 3.9 -11.3°
Drops below altitude 10° 10:24:38 10° 165° (SSE) 1,983 6.0 -10.6°
Sets 10:26:52 0° 167° (SSE) 2,885 6.8 -10.2°
